Regional Weather Roundup
Issued by NWS

Home | Current Version | Previous Version | Graphics & Text | Print | Product List | Glossary On
Versions: 1 2 3 4 5 6 7 8 9 10 11 12 13 14 15 16 17 18 19 20 21 22 23 24 25 26 27 28 29 30 31 32 33 34 35 36 37 38 39 40 41 42 43 44 45 46 47 48 49 50
550
ASUS43 KMKX 011300
RWRWI

WISCONSIN REGIONAL WEATHER ROUNDUP
NATIONAL WEATHER SERVICE MILWAUKEE/SULLIVAN WI
800 AM CDT SUN MAY 01 2016

NOTE: "FAIR" INDICATES FEW OR NO CLOUDS BELOW 12,000 FEET WITH NO
SIGNIFICANT WEATHER AND/OR OBSTRUCTIONS TO VISIBILITY.

WIZ001-002-006>008-014>016-023>028-011400-
NORTHWEST WISCONSIN

CITY           SKY/WX    TMP DP  RH WIND       PRES   REMARKS
SUPERIOR ARPT  CLOUDY    41  32  69 E7        30.26R
ASHLAND        CLOUDY    40  37  89 NE15      30.24S WCI  32
HAYWARD        CLOUDY    40  34  79 NE14G21   30.20R WCI  32
SIREN          MOSUNNY   39  33  80 NE8       30.20S WCI  33
CUMBERLAND     PTSUNNY   37  32  81 N7        30.16S WCI  32
RICE LAKE      PTSUNNY   41  35  77 N9        30.17S
CHETEK         PTSUNNY   42  35  74 NE6       30.16S
LADYSMITH      PTSUNNY   40  35  80 N7        30.17R
EAU CLAIRE     NOT AVBL
MENOMONIE      CLOUDY    44  34  70 N9        30.14S
NEW RICHMOND   CLOUDY    40  33  75 N9        30.16S WCI  35
OSCEOLA        MOSUNNY   41  35  77 NE8       30.20R
$$

WIZ003>005-009-010-017-018-011400-
NORTH CENTRAL WISCONSIN

CITY           SKY/WX    TMP DP  RH WIND       PRES   REMARKS
MANITOWISH WTR CLOUDY    38  37  95 N8        30.16R WCI  32
ARBOR VITAE    MOSUNNY   39  36  87 N6        30.14S WCI  35
WOODRUFF       MOSUNNY   39  36  87 N6        30.14S WCI  35
RHINELANDER    CLOUDY    39  34  82 VRB7      30.14R WCI  34
EAGLE RIVER    PTSUNNY   38  35  92 NE9       30.14R WCI  31
LAND O LAKES   MOSUNNY   38  35  91 N6        30.16R WCI  33
PHILLIPS       CLOUDY    37  35  92 N7        30.14S WCI  31
TOMAHAWK       MOSUNNY   38  33  84 N7        30.14R WCI  32
MEDFORD        CLOUDY    39  35  84 NE8       30.10S WCI  34
MERRILL        MOSUNNY   39  35  83 NE7       30.12R WCI  34
$$

WIZ029-030-035-036-043>047-011400-
CENTRAL WISCONSIN

CITY           SKY/WX    TMP DP  RH WIND       PRES   REMARKS
WAUSAU         CLOUDY    45  34  65 N6        30.09R
MOSINEE        CLOUDY    43  34  70 NE10      30.11R
MARSHFIELD     CLOUDY    44  33  65 NE9       30.09R
STEVENS POINT  CLOUDY    42  33  70 N7        30.10R
WAUPACA        DRIZZLE   45  36  71 N7        30.09R
WAUTOMA        NOT AVBL
WISC RAPIDS    CLOUDY    45  32  60 NE8       30.10R
CAMP DOUGLAS   NOT AVBL
$$

WIZ011>013-019>022-031-037>040-048>050-011400-
NORTHEAST WISCONSIN

CITY           SKY/WX    TMP DP  RH WIND       PRES   REMARKS
ANTIGO         CLOUDY    39  34  81 NE3       30.10S
SHAWANO        CLOUDY    46  35  67 NE7       30.11R
OCONTO         CLOUDY    43  37  79 N6        30.10S
STURGEON BAY   CLOUDY    41  36  81 N8        30.12R
GREEN BAY      LGT RAIN  44  39  82 NE10      30.09R
MANITOWOC      LGT RAIN  43  39  87 MISG      30.08R
APPLETON       DRIZZLE   43  34  70 NE12      30.07R
CLINTONVILLE   DRIZZLE   43  34  70 NE7       30.09S
OSHKOSH        CLOUDY    44  38  79 NE13      30.07R
$$

WIZ032>034-041-042-053>061-011400-
SOUTHWEST WISCONSIN

CITY           SKY/WX    TMP DP  RH WIND       PRES   REMARKS
LA CROSSE      CLOUDY    47  35  63 N9        30.09R
SPARTA         CLOUDY    46  35  67 NE8       30.09R
VIROQUA        CLOUDY    41  38  86 NE7       30.06R
BOSCOBEL       CLOUDY    47  39  74 NE8       30.06R
PRAIRIE DU CHI CLOUDY    45  37  73 N5        30.04S
PLATTEVILLE    CLOUDY    43  42  97 NE13G18   30.01S
$$

WIZ056-057-062-063-064-067-068-011400-
SOUTH CENTRAL WISCONSIN

CITY           SKY/WX    TMP DP  RH WIND       PRES   REMARKS
REEDSBURG      CLOUDY    42  37  80 NE8       30.06S
BARABOO/DELLS  CLOUDY    42  35  77 NE7       30.06R
LONE ROCK      NOT AVBL
MINERAL POINT  CLOUDY    43  43 100 NE10      30.02R
MADISON        CLOUDY    43  40  89 NE13      30.04R
MIDDLETON      CLOUDY    44  40  86 NE10      30.04R
WATERTOWN      CLOUDY    43  43 100 NE6       30.03R
MONROE         CLOUDY    43  41  93 NE14      30.01R
JANESVILLE     CLOUDY    45  45 100 NE12      30.01R
$$

WIZ051-052-058>065-066-070>072-011400-
SOUTHEAST WISCONSIN

CITY           SKY/WX    TMP DP  RH WIND       PRES   REMARKS
MILWAUKEE      FOG       42  40  92 N14G28    30.02R VSB 1
WAUKESHA       RAIN      39  39 100 NE9G16    30.03R VSB 1   WCI  33
MILWAUKEE/TIMM LGT RAIN  43  39  87 NE16G24   30.03R
RACINE         LGT RAIN  42  40  92 N12G23    30.03R FOG
BURLINGTON     CLOUDY    42  41  98 NE12      30.01R FOG
KENOSHA        CLOUDY    43  41  93 NE13G18   30.01R FOG
FOND DU LAC    CLOUDY    44  38  79 NE13      30.07R
SHEBOYGAN      LGT RAIN  42  39  89 NE10      30.07R FOG
WEST BEND      CLOUDY    41  37  87 NE10      30.04R
JUNEAU         CLOUDY    42  38  86 N10       30.05R
$$

LSZ147-162-011400-
LAKE SUPERIOR

STATION/POSITION TIME  TEMP    WIND        PRES    WAVE
                       AIR SEA DIR/SP/G            HT/PER
                 (UTC) (F)     (DEG/KT/KT) (MB)    (FT/S)
W MID LAKE BUOY  1150   38 37   40/ 14/ 17 1024.4R   2/ 4
DEVILS ISLAND    1200   38      30/ 13/ 14 1024.9R
SAXON HARBOR     1200   39      40/ 11/ 12 1023.0R
$$

LMZ867-665-643>646-011400-
LAKE MICHIGAN

STATION/POSITION TIME  TEMP    WIND        PRES    WAVE
                       AIR SEA DIR/SP/G            HT/PER
                 (UTC) (F)     (DEG/KT/KT) (MB)    (FT/S)
CHAMBERS ISLAND  1200   41     340/  7/  8 1019.3S
N MID LAKE BUOY  1150   41 38   50/ 14/ 16 1018.8R   1/ 3
NORTHPORT PIER   1200   41     310/  4/  7 1019.3R
ALGOMA LAKESHORE 1215           10/  7/  8   N/A
KEWAUNEE LAKESHO 1200   42      10/  9/ 12 1017.6R
SHEBOYGAN LAKESH 1200   41      10/ 18/ 20 1018.4R
PORT WASHINGTON  1240   42      20/ 12/ 18 1018.3R
S MID LAKE BUOY  1150   41 40   40/ 14/ 16 1015.0R   2/ 4
KENOSHA   LAKESH 1200   42      20/ 19/ 22 1015.2R
$$

TC  - TEMPERATURE IN CELSIUS
VSB - VISIBILITY IN STATUTE MILES
WCI - WIND CHILL INDEX
HX  - HEAT INDEX





USA.gov is the U.S. government's official web portal to all federal, state and local government web resources and services.